Location: Burzi?i
(45.0869°N, 16.0577°E)
Time: 12:02:57
(UTC+00:00)

H-2A R/B - Pass Details

Date: 29 October 2020
Orbit: 577 x 656 km, 98.5° (Epoch: 27 November)

Event Time Altitude Azimuth Distance (km) Brightness Sun altitude
Rises 17:00:11 0° 1° (N) 2,840 5.4 -13.3°
Reaches altitude 10° 17:02:44 10° 346° (NNW) 1,922 4.7 -13.8°
Maximum altitude 17:05:54 22° 296° (WNW) 1,306 4.5 -14.3°
Drops below altitude 10° 17:09:03 10° 245° (WSW) 1,892 5.7 -14.9°
Sets 17:11:32 0° 230° (SW) 2,782 6.4 -15.3°
